Showing default

LEO 1, 43113

Orbit data source: Space-Track

LEO 1, 43113 is a payload satellite owned by Telesat (Loral) (US) in SSO that was launched on Fri, 12 Jan 2018 UTC via a PSLV-XL launch vehicle from the Sirharikota (SRI). Payload-class satellites include a variety of spacecraft equipped with specific instruments for various scientific and technological missions. These include communications satellites like Starlink; space stations such as the ISS; scientific satellites like the Hubble; Earth observation satellites from companies like Planet Labs, Umbra, and HawkEye 360; GPS; miniature CubeSats for education and research; and military/defense satellites.

Loading next visibility...
Identifier
43113, 2018-004C
Orbit
SSO
Country
Flag of USUS
Related business
Manufacturer
SSTL (Astrium)
Mission
Partially operational Commercial Communications
Bus & Motor
SSTL-42, Unknown motor
Mass
~100 kg wet, ~100 kg dry
Launch date (UTC)
2018-01-12 (8 years ago)
Launch vehicle
PSLV-XL
Launch site
Sirharikota (SRI)
Object type
Payload
Rocket body
Debris
Shape & HBR
Box + 1 Dish, 0.5 m
Radar Cross Section
0.735 m², Medium (>0.1 m² and < 1m²)

Expand to show TLE details & history
Last TLE update: 15 hours ago

TLE from 15 hours ago
0 LEO 1
1 43113U 18004C   26035.69577808  .00003133  00000-0  22066-3 0  9990
2 43113  99.2510 296.7351 0354163 125.8041 237.6624 14.66922595418053
Epoch: 2026-02-04T16:41Z
TLE epoch observation values (Epoch: 2026-02-04T16:41:55.226Z)
Latitude
-0.00003°
Longitude
-88.60366°
Altitude
813.581 km
Speed
7.372 km/s
True Right ascension
19h 46m 56s
True Declination
0° 00' 00"
Sunlit
Object was in daylight at epoch
Visualization orbit readout
Latitude
Unknown
Longitude
Unknown
Altitude
Unknown
Speed
Unknown
Apparent Right ascension
Unknown
Apparent Declination
Unknown
Sunlit
N/A
Visualization observer readout
Local Sidereal Time
09:22:52
Azimuth
Unknown
Elevation
Unknown
Doppler factor
Unknown
Orbital elements
Apogee altitude
917.577 km
Perigee altitude
418.478 km
Semi-major axis
7,046.165 km
Eccentricity
0.03542
Inclination
99.251°
RAAN
296.7351°
Arg. of periapsis
125.8041°
True anomaly
234.3147°
Mean anomaly
237.6624°
Eccentric anomaly
235.9805°
Mean motion
3.66956 °/min
Orbital period
98.1 mins
BSTAR
0.00022066
Loading maneuver chart data...
Computing Atmospheric mass density...

Documentation

Showing up to 5 results
|